RH
4 4 5 5 6 10 12 13 16 18 18 19 22 22 21 21 21 21 20 20 20 19 18 17 16 17 16 15 20 22 20 17 18 21 23 25 23 23 21 20 21 17 15 16 13 13 16 18 18 16 15 22 26 27 22 33 51 48 44 35 35 46 40 38 39 38 34 30 39 47 57 51 43 53 56 57 58 65 68 63 64 58 54 49 40 40 44 46
4 6 5 5 8 11 11 15 18 18 19 21 22 21 22 21 20 21 20 20 19 18 18 16 17 17 17 17 18 21 20 17 19 23 22 24 22 21 21 20 20 17 17 17 16 16 19 24 24 22 24 26 25 27 27 28 42 57 50 31 44 57 44 44 41 39 38 31 38 45 58 59 48 51 49 44 52 65 60 52 61 60 51 45 44 43 42 47
7 7 5 7 9 12 14 18 18 18 20 21 21 21 21 20 20 21 20 19 18 19 18 17 20 21 22 21 20 22 19 17 22 24 22 23 22 21 21 20 19 17 18 18 18 16 18 22 18 23 29 28 28 30 32 32 37 50 45 32 53 62 46 47 45 41 41 40 40 44 62 62 54 60 51 47 51 51 48 45 50 49 42 39 42 42 39 48
7 6 7 9 11 14 17 18 18 19 20 20 21 21 20 20 20 20 20 19 18 19 18 20 23 22 23 21 22 21 19 22 26 23 21 22 21 21 20 20 19 17 19 18 16 16 18 19 19 30 29 28 46 42 33 38 34 35 38 38 51 54 40 40 47 48 50 52 47 48 59 49 49 64 58 51 49 41 39 46 50 43 40 40 40 42 43 52
7 8 9 11 14 17 18 18 18 19 20 21 21 20 20 20 21 21 19 18 18 18 18 21 23 23 21 19 20 17 20 29 26 20 22 22 19 20 20 20 19 17 19 17 17 18 16 19 27 43 37 29 48 42 29 44 40 32 42 48 53 50 35 39 51 52 54 55 53 54 48 41 48 57 59 55 47 41 36 44 55 50 47 47 45 48 53 59
9 10 12 14 17 18 18 18 19 20 20 21 20 19 20 22 22 20 18 18 17 18 18 21 22 21 20 20 18 15 22 26 21 20 22 21 18 19 20 20 20 17 18 17 17 18 21 30 31 41 48 39 42 36 35 56 49 34 47 58 59 54 38 42 53 53 61 57 52 52 43 51 53 45 59 60 47 45 43 47 54 51 50 51 55 58 58 60
11 12 15 17 19 18 18 18 19 20 20 20 20 19 20 22 22 19 18 17 17 18 18 22 22 19 22 21 16 23 34 27 20 22 21 21 19 18 20 19 20 18 18 18 18 23 32 38 35 43 50 41 38 40 46 58 54 45 47 56 60 54 42 48 61 64 69 60 53 57 48 49 48 42 56 53 42 44 45 49 51 49 51 53 59 59 58 60
13 15 18 18 18 18 18 18 19 20 20 20 19 19 21 22 22 19 18 17 17 19 19 25 23 18 21 20 24 38 40 26 20 22 21 21 19 18 20 19 21 20 20 23 22 27 35 34 36 45 41 35 35 42 50 45 50 55 46 53 62 58 56 62 68 64 63 62 60 58 47 45 46 46 48 40 36 39 40 44 47 49 51 52 54 53 55 58
15 17 19 18 18 18 18 18 20 20 19 20 19 20 22 22 21 19 18 17 19 21 22 27 25 19 17 22 36 39 28 21 21 22 21 21 19 18 19 19 20 21 22 27 27 24 29 32 35 36 33 39 39 44 55 38 37 49 46 56 61 60 68 65 56 54 56 60 58 51 45 48 51 46 43 41 36 38 42 40 43 47 45 46 47 49 51 51
17 18 18 18 18 18 18 19 19 19 20 19 19 21 22 21 21 19 18 19 22 23 25 27 24 20 15 23 38 30 19 21 21 20 22 21 19 18 19 19 19 21 23 25 29 29 29 30 35 38 40 48 44 47 55 39 38 55 61 64 63 65 67 54 46 53 57 53 53 53 48 50 53 44 36 37 37 41 44 38 41 44 40 42 43 45 47 47
18 18 18 17 18 18 18 19 19 19 19 18 20 22 21 20 21 20 19 20 23 23 25 26 25 20 15 23 33 26 20 21 20 21 22 20 19 19 18 19 19 20 21 24 29 32 31 28 34 40 37 38 42 49 51 45 49 64 64 50 55 66 56 46 46 54 54 44 52 57 45 44 47 41 33 34 40 44 43 38 40 41 40 41 40 40 41 44
17 18 17 17 17 18 18 18 19 19 18 19 20 20 20 20 20 19 19 20 22 23 23 25 26 20 20 28 28 23 20 19 21 22 22 21 19 21 20 19 20 20 20 25 29 30 30 29 32 36 37 37 39 40 44 57 66 66 56 37 45 59 43 40 51 57 51 40 54 56 38 38 39 35 35 39 44 43 40 37 38 40 40 40 39 37 38 41
17 18 16 17 17 17 18 18 19 18 18 19 19 20 20 19 19 19 20 20 22 22 21 25 25 18 25 33 24 18 19 18 20 21 23 22 20 22 22 20 20 21 20 25 29 29 30 28 28 37 50 53 42 33 42 64 66 55 53 50 54 51 29 36 59 57 42 43 57 47 30 35 35 34 38 46 47 38 34 34 37 39 38 38 38 36 37 41
17 16 16 17 16 17 18 17 19 17 17 18 20 22 21 20 19 18 20 21 21 20 20 25 22 17 26 29 19 18 19 17 19 21 23 22 22 22 22 22 21 21 22 25 28 29 29 26 29 43 58 60 45 40 58 71 64 52 54 64 68 47 21 37 71 63 36 48 63 44 38 39 31 36 41 46 48 38 33 35 37 38 38 37 37 37 39 41
16 16 17 16 16 18 17 17 18 17 17 19 21 22 21 21 18 17 19 19 20 19 20 22 18 19 30 25 17 17 16 17 19 21 25 24 24 25 23 22 22 22 23 25 27 27 26 23 33 48 54 60 59 55 63 68 72 67 47 49 65 53 33 42 73 77 48 54 67 50 51 52 38 41 42 44 48 41 36 37 38 39 40 39 37 38 40 42
16 17 16 16 17 17 17 18 18 17 18 19 21 21 21 21 18 18 19 19 20 19 19 21 17 22 30 21 15 17 18 20 19 20 25 25 25 27 25 23 24 24 22 22 23 23 23 29 46 56 55 63 69 68 65 60 68 70 47 41 59 58 45 39 54 78 66 57 64 51 51 55 42 38 40 44 49 44 38 38 40 41 42 42 40 41 43 44
17 17 16 16 17 17 17 17 18 18 18 19 20 18 20 21 20 19 19 20 19 18 18 18 17 21 23 18 18 22 23 22 18 19 24 25 26 26 23 25 27 26 25 21 18 22 27 39 49 48 57 65 63 63 58 49 48 60 66 64 67 64 58 46 38 61 69 57 59 56 54 55 44 40 42 47 51 46 42 42 42 45 48 48 47 45 44 46
16 16 15 16 17 17 18 18 20 19 17 18 17 18 20 20 18 17 19 19 18 20 21 20 21 24 21 20 23 25 25 22 19 19 22 24 25 25 24 28 31 29 34 28 20 33 42 51 52 37 48 62 64 63 44 36 44 56 72 75 74 68 60 53 39 51 68 58 59 60 51 49 46 43 41 46 51 47 47 48 47 51 53 52 53 50 47 47
16 16 15 17 16 17 22 24 23 18 18 18 17 19 19 20 22 18 16 20 24 26 27 29 30 26 22 22 24 24 23 22 18 17 21 26 25 25 23 28 34 35 46 39 25 46 55 53 60 50 53 65 73 75 52 46 59 62 71 77 78 71 56 49 45 61 73 60 63 66 54 53 49 42 43 48 51 51 52 53 52 54 54 54 54 54 51 50
15 15 16 17 16 20 26 26 22 17 18 17 18 22 22 34 44 33 27 32 37 35 32 37 35 27 25 25 25 24 21 18 16 18 21 25 27 24 26 37 39 36 56 53 29 49 59 49 63 65 65 74 75 80 75 70 74 76 86 87 81 76 59 41 44 69 74 58 69 77 65 58 48 44 50 50 51 57 59 58 58 57 55 56 55 56 55 53
14 15 18 17 17 24 24 21 20 17 17 16 17 24 27 38 41 32 33 37 39 39 35 38 37 30 27 26 27 26 25 18 15 20 19 24 30 21 29 50 40 28 58 72 48 47 50 43 58 65 68 76 78 86 89 88 88 84 86 78 65 63 52 36 43 70 70 55 69 79 61 47 47 51 53 52 56 61 62 62 62 59 57 58 56 56 55 52
12 15 18 16 20 24 21 18 18 16 17 16 18 30 36 36 31 28 32 30 26 32 36 36 33 32 28 24 27 28 26 23 19 20 18 27 33 28 41 57 47 39 58 72 57 46 44 41 53 70 82 85 83 88 85 87 94 82 70 64 54 51 50 46 52 71 70 56 67 77 61 49 53 56 53 55 60 60 62 63 62 61 59 58 57 57 55 52
11 15 17 17 22 21 19 18 16 17 18 16 22 33 36 34 33 29 27 25 19 25 37 36 29 30 31 23 23 27 26 27 29 22 21 34 43 51 62 61 60 64 63 56 40 34 35 38 56 78 86 76 66 76 77 71 76 70 55 50 51 50 49 49 52 64 68 60 70 78 67 59 53 50 53 57 59 59 60 60 60 61 60 59 57 56 55 53
10 16 15 18 22 19 19 18 16 19 19 20 24 29 32 31 33 30 29 31 23 20 30 32 29 29 29 24 22 29 30 30 33 24 23 38 49 58 64 62 67 70 68 64 50 41 35 43 72 80 71 62 51 66 75 60 60 68 59 44 43 53 55 52 56 64 65 62 72 68 53 48 41 42 56 56 57 60 59 59 58 58 58 56 55 52 52 53
10 15 16 19 20 18 19 16 20 22 20 25 25 27 29 25 33 34 31 37 25 17 24 25 26 25 23 22 23 36 39 30 29 28 26 35 45 51 54 59 61 54 63 70 56 46 43 56 74 61 58 64 49 56 65 57 60 66 61 48 41 55 63 65 71 65 51 47 58 52 36 38 38 44 61 61 61 63 59 61 60 56 56 54 53 52 50 49
11 16 18 18 19 18 16 18 24 25 25 30 27 29 26 23 35 31 33 52 35 12 18 18 16 20 19 22 31 44 42 28 23 25 26 31 39 42 43 51 52 47 62 65 45 38 42 59 69 52 54 59 46 50 56 61 66 48 47 57 55 65 71 75 76 51 31 31 44 48 36 34 36 41 61 68 67 67 61 61 61 57 56 53 54 52 49 48
11 16 18 17 18 17 19 24 24 24 29 32 31 34 31 29 31 22 33 58 39 13 17 21 16 16 19 23 34 37 27 23 21 21 26 27 33 39 40 45 43 42 62 63 37 30 38 54 70 65 53 45 42 48 51 64 61 35 42 63 65 65 65 78 78 54 50 46 42 51 42 36 42 45 60 69 68 71 66 63 61 58 57 53 52 52 50 49
10 16 17 17 18 16 21 23 19 22 28 28 28 29 33 36 29 30 43 37 21 17 19 23 16 15 26 30 34 35 30 32 22 15 24 23 26 37 37 41 41 35 51 56 31 28 45 51 60 65 49 36 37 42 57 70 56 42 56 68 71 71 70 88 92 82 86 56 28 42 39 34 42 43 58 70 71 76 73 69 65 60 60 54 50 51 49 47
9 15 17 18 18 18 19 18 17 21 23 24 26 27 32 33 25 39 51 26 12 19 19 21 17 22 43 42 40 43 37 38 31 24 31 26 22 32 34 44 53 38 37 51 38 27 46 55 59 61 45 37 43 52 69 67 49 53 63 63 71 80 82 91 85 81 85 51 20 32 35 32 31 33 59 75 77 82 76 71 68 61 61 55 49 50 47 46
9 14 18 18 18 19 19 18 19 19 22 25 27 31 28 31 44 47 34 16 13 20 24 27 26 38 54 45 41 46 38 41 47 43 41 33 28 35 39 49 60 47 34 45 42 30 46 64 70 67 52 49 57 67 79 74 63 62 54 43 45 54 69 87 83 64 52 34 20 27 38 42 38 48 77 81 74 80 78 71 67 60 56 53 50 49 48 47
12 16 18 18 19 22 21 20 21 18 25 26 26 35 23 33 74 63 22 13 18 26 33 36 45 56 57 43 34 43 47 49 53 50 45 40 37 38 41 44 53 54 44 39 34 34 44 47 49 62 66 65 57 51 62 76 77 62 42 31 25 28 50 78 85 62 33 22 28 46 60 53 44 58 78 78 72 77 79 75 69 63 55 51 52 49 47 47
15 18 18 17 17 19 19 20 23 19 24 25 26 41 33 30 51 42 27 24 17 25 33 38 55 58 51 47 36 41 50 46 50 53 50 53 55 51 50 51 49 41 36 35 30 33 36 25 26 42 54 57 47 36 46 60 60 49 43 40 34 40 51 55 61 60 43 30 34 55 64 50 49 65 73 74 74 71 71 70 67 66 58 51 53 50 47 46
18 17 16 17 17 17 17 19 21 20 23 25 30 49 52 36 23 21 36 33 18 32 42 47 62 55 46 43 35 44 46 33 41 48 45 56 63 59 56 59 55 36 26 31 31 35 37 31 31 30 32 44 42 33 38 45 49 51 50 47 45 51 56 50 52 56 48 36 33 41 50 49 52 67 74 72 70 65 61 64 65 66 59 51 50 49 45 42
17 16 15 18 20 22 23 21 20 21 21 23 39 56 47 26 18 22 35 38 38 49 52 54 55 40 36 35 33 45 38 24 37 45 44 51 56 59 55 52 58 54 44 37 31 36 37 32 28 21 24 40 44 41 44 45 52 61 58 51 50 50 50 57 60 53 43 44 45 38 44 54 47 54 72 71 68 67 61 61 63 61 58 52 46 44 40 37
14 14 14 17 21 24 27 24 21 21 18 20 42 57 35 15 24 32 34 43 54 55 50 51 48 39 38 42 46 45 29 23 39 47 48 50 51 57 55 52 59 63 57 43 32 36 33 22 24 32 36 42 46 52 59 50 41 56 65 55 52 52 54 64 65 53 51 65 72 61 57 64 57 64 80 74 68 68 61 60 58 54 53 46 40 39 34 33
13 12 14 15 18 22 26 27 21 17 22 28 38 46 37 24 29 40 46 48 51 53 48 39 40 46 45 48 57 50 29 26 36 38 41 50 53 50 51 59 62 61 59 45 35 38 32 21 28 38 36 44 55 56 62 55 30 38 55 43 42 55 59 68 71 63 65 71 74 66 56 57 60 72 85 81 71 64 59 58 54 50 47 40 37 35 30 30
13 13 15 16 18 18 22 26 20 15 23 34 40 42 43 40 35 45 60 60 54 55 51 34 26 34 39 43 52 53 39 31 34 33 30 39 47 45 52 60 55 58 64 52 40 39 38 39 44 37 21 39 69 64 62 71 50 41 49 39 43 60 65 73 77 74 76 77 68 58 52 51 52 64 79 78 69 61 57 54 52 49 44 38 34 30 28 30
15 17 18 17 17 16 18 18 15 18 26 42 61 59 49 47 47 57 68 66 60 58 51 36 21 26 39 38 40 53 52 38 39 41 31 29 34 38 48 53 51 65 78 67 53 48 45 43 44 40 26 33 55 46 40 57 56 48 49 43 45 55 63 71 72 70 76 82 76 62 55 55 53 66 81 76 65 60 56 52 53 51 41 34 31 28 28 30
15 23 25 18 16 16 16 12 14 25 29 43 69 64 48 53 64 77 81 67 60 57 47 37 27 31 42 39 39 55 56 42 40 42 32 25 28 36 48 51 50 67 81 74 64 59 52 41 34 37 34 27 30 29 27 37 47 53 58 59 57 56 58 62 65 69 75 82 85 76 63 59 65 78 81 72 63 55 51 53 53 45 35 30 29 30 30 30
18 26 21 12 16 17 13 10 22 39 41 48 64 56 48 56 64 81 93 80 62 46 37 42 40 35 40 44 45 52 61 59 51 42 33 28 27 38 60 67 64 72 78 72 71 65 52 42 33 32 35 28 23 26 27 29 38 52 66 77 81 75 65 64 67 67 73 85 93 93 79 64 68 77 72 66 57 44 47 55 47 35 30 29 29 29 30 32
30 33 18 12 17 16 13 22 46 65 64 59 58 54 57 57 50 65 87 88 72 50 42 53 52 41 43 45 42 51 65 68 60 46 36 33 29 34 63 86 89 87 72 57 64 65 52 49 47 46 41 25 19 30 33 33 41 54 70 79 84 82 75 80 83 73 78 91 91 98 97 73 64 72 69 61 48 39 48 49 37 31 31 30 30 29 31 33
40 37 18 13 13 11 17 39 71 88 80 62 52 57 71 65 47 50 67 70 62 54 51 55 56 54 55 48 48 61 63 53 52 46 35 36 35 39 68 93 99 97 76 53 59 66 64 63 58 52 41 21 29 55 58 53 54 61 73 77 80 86 85 92 96 84 86 88 79 90 96 73 67 78 69 52 40 39 45 39 32 35 33 31 33 32 32 34
36 24 11 13 14 13 22 41 65 78 73 61 55 60 68 64 51 48 57 58 50 47 47 48 49 47 50 56 58 58 48 36 39 41 37 42 43 53 83 97 95 96 76 51 55 62 61 60 48 38 34 27 37 59 63 59 62 71 80 82 84 87 86 92 95 90 94 92 84 96 93 65 64 73 57 38 35 38 38 33 34 36 33 33 34 33 34 36
33 18 16 17 7 10 29 43 52 62 64 53 47 53 56 57 57 53 54 60 58 51 45 47 49 41 49 68 64 52 43 31 27 34 39 43 49 71 100 100 94 97 76 56 65 61 44 45 45 36 33 32 32 40 45 45 58 81 89 86 87 83 82 92 93 92 98 88 80 99 97 62 47 50 40 31 34 38 34 31 33 35 35 35 35 36 38 39
35 25 31 27 11 22 47 56 56 63 67 54 42 47 51 50 57 63 61 64 72 67 47 41 52 56 59 64 61 61 55 33 23 34 42 43 52 81 104 99 96 101 91 85 91 76 50 48 55 45 36 40 41 39 41 42 56 78 85 84 88 86 85 90 91 95 96 83 78 93 90 60 41 40 37 32 36 38 35 32 33 35 36 37 37 40 41 42
31 27 35 34 28 41 59 69 74 67 60 59 46 39 43 40 44 61 64 57 65 73 60 50 55 57 53 54 57 61 54 38 34 42 47 47 49 67 92 100 99 98 97 100 97 84 71 64 60 49 38 43 49 40 39 51 60 67 76 85 90 92 90 88 91 94 89 87 88 81 72 65 56 45 37 35 38 40 38 37 37 37 38 39 41 43 44 45
41 32 33 28 24 45 62 69 81 69 53 59 48 32 44 48 39 44 47 44 57 67 63 60 59 50 46 53 52 43 38 38 38 39 47 56 59 65 79 95 101 97 95 100 94 77 62 51 51 54 46 45 51 44 43 59 65 66 79 88 89 94 93 86 88 83 77 92 95 67 58 68 58 40 35 39 42 41 40 41 41 40 41 42 44 46 48 48
46 36 40 34 23 41 53 49 65 73 64 70 63 47 56 61 47 42 40 42 53 51 39 40 52 60 64 60 43 29 36 42 39 39 47 61 72 69 64 74 94 100 91 87 87 75 53 43 51 64 65 60 60 57 57 64 69 78 88 85 83 93 89 81 82 74 71 90 88 59 53 59 46 34 38 42 42 42 42 42 41 42 44 46 48 49 50 49
40 37 46 51 42 50 60 56 62 64 60 75 71 52 55 55 44 48 52 46 40 37 33 27 35 62 83 77 52 35 40 43 37 42 51 58 66 63 49 48 70 89 81 72 84 81 58 54 70 80 79 71 63 63 66 65 68 84 92 83 79 83 78 72 72 66 65 70 61 47 49 46 36 36 41 41 40 41 42 42 43 45 47 49 52 52 51 50
36 35 39 53 60 71 81 79 70 54 54 71 61 43 55 55 40 48 57 43 25 29 43 39 38 64 87 84 62 40 37 38 33 42 58 61 66 69 54 41 56 81 80 74 85 77 49 55 86 95 81 64 59 66 67 65 73 86 90 87 83 76 70 68 63 59 61 57 45 43 48 43 34 37 42 41 40 42 44 46 48 48 49 52 53 52 52 52
30 28 28 37 47 60 69 71 73 65 55 57 49 42 50 47 42 50 48 45 44 41 44 46 50 69 84 78 62 46 46 49 43 48 59 58 63 71 59 48 61 78 80 85 93 84 68 70 87 96 79 54 53 63 60 65 83 91 90 91 89 77 66 61 58 53 51 49 47 49 51 47 40 40 44 44 43 47 49 50 51 51 51 53 53 52 52 52
25 22 27 37 38 52 68 66 67 62 44 42 55 60 54 51 65 59 32 42 72 65 55 60 58 61 62 51 42 45 55 62 62 69 74 71 77 86 75 69 74 76 83 97 98 93 92 85 85 97 84 53 50 61 59 60 67 70 80 87 80 67 56 49 47 42 35 37 46 50 48 45 42 44 49 49 49 52 52 51 53 54 53 51 49 51 51 52
Wind_Speed
3 4 5 6 5 6 7 7 8 9 10 10 10 10 11 12 12 11 9 9 9 9 9 8 6 5 6 7 8 11 8 11 19 25 19 12 17 20 17 13 10 11 10 10 10 7 5 7 7 7 4 3 4 2 3 3 3 4 3 2 1 2 2 4 6 5 2 4 5 3 3 1 7 5 3 2 1 4 5 6 5 5 8 11 14 13 12 11
3 4 5 5 6 6 7 7 8 9 9 8 9 9 10 11 11 10 7 8 8 8 9 7 8 7 8 8 8 11 7 8 17 20 15 16 19 19 14 13 11 10 10 9 9 7 5 5 6 6 5 3 3 1 2 3 3 3 3 1 2 4 4 5 5 4 2 4 6 5 2 1 5 3 3 4 6 5 6 7 3 5 10 11 14 16 17 15
3 4 5 6 6 7 7 7 7 8 8 7 8 8 10 10 10 9 6 7 7 8 9 8 10 10 12 11 8 9 4 7 12 11 15 20 19 17 14 14 12 9 9 8 7 5 3 1 1 4 5 3 2 2 4 3 2 2 3 1 4 5 4 4 4 5 4 4 6 6 2 1 4 3 2 3 8 7 5 6 3 6 11 10 9 10 13 14
4 5 6 6 7 7 6 6 7 7 6 6 7 8 9 10 9 7 5 6 6 8 9 9 10 13 14 10 8 6 2 7 6 8 16 20 19 17 14 15 13 8 6 6 5 4 2 2 3 4 4 3 3 3 3 3 1 2 3 2 4 2 2 3 2 5 4 2 3 5 3 4 4 1 1 2 6 9 5 4 3 7 12 13 12 10 10 9
5 6 7 7 7 6 5 6 6 5 5 6 6 9 10 10 8 5 5 5 6 8 9 10 12 15 12 9 10 4 3 6 5 10 17 18 19 17 13 15 13 6 5 6 4 3 3 3 6 6 4 3 4 4 2 2 2 1 1 2 4 3 1 4 2 3 3 1 2 4 5 6 2 0 3 2 2 5 5 4 5 9 10 12 13 12 10 7
6 7 7 7 6 5 5 5 5 4 5 6 7 10 11 10 7 4 5 5 6 9 9 10 13 15 9 9 13 7 7 3 6 11 16 16 19 17 12 13 11 7 5 5 5 3 3 5 6 4 3 3 2 3 1 3 3 0 2 2 0 2 2 5 4 4 4 2 3 3 4 3 4 4 2 3 6 7 7 8 9 10 11 12 11 9 9 8
7 7 7 6 4 4 4 4 4 4 4 6 9 10 10 9 6 4 5 5 6 8 9 10 13 15 7 7 13 13 9 1 7 12 15 17 20 15 10 11 10 8 6 7 7 4 5 7 6 4 4 4 0 2 1 4 5 3 2 3 1 2 3 4 5 6 3 2 5 2 3 3 4 5 2 3 7 7 9 10 9 11 12 11 8 7 8 8
7 6 5 4 3 3 3 3 3 4 5 7 9 10 8 8 6 5 5 5 7 8 9 10 12 15 8 4 6 8 5 3 9 14 16 19 19 13 7 9 9 9 11 12 7 2 4 6 3 3 4 3 2 2 2 3 5 4 2 2 1 2 5 5 5 5 4 3 4 1 3 6 5 2 2 6 6 7 11 10 9 9 8 8 7 8 8 8
6 5 4 3 3 3 3 3 3 4 6 8 9 9 7 7 6 5 5 5 7 7 8 9 12 14 9 4 5 6 3 8 13 16 18 21 18 8 5 7 9 10 12 11 8 4 3 2 1 2 3 2 3 2 2 2 2 2 3 1 1 4 5 5 5 6 7 2 2 5 6 7 5 1 1 5 6 9 11 9 9 8 11 11 10 11 10 11
5 3 2 3 3 3 2 3 4 5 7 8 8 7 6 7 6 5 5 5 6 7 7 9 10 13 13 6 6 6 6 10 14 17 19 20 12 3 4 7 7 9 9 11 13 9 4 2 3 4 5 3 3 1 1 2 1 2 2 1 0 4 4 4 5 8 7 1 5 9 8 8 5 2 2 5 9 10 10 10 11 11 12 12 12 12 13 15
3 2 2 3 3 2 2 3 4 5 8 8 7 6 7 7 6 5 4 4 6 7 7 8 8 9 15 12 7 5 8 11 15 19 18 13 6 4 5 7 6 8 10 12 13 9 5 3 5 5 3 2 2 1 1 2 2 1 2 2 3 5 2 6 7 8 7 1 6 7 4 7 5 4 3 7 10 9 8 11 12 12 11 11 12 13 14 15
2 2 2 3 2 2 3 4 5 7 8 7 6 7 7 6 5 4 4 4 5 8 8 7 8 4 8 11 7 4 9 11 16 20 16 8 5 7 7 7 7 8 9 9 8 7 6 6 8 6 1 2 3 1 1 3 2 1 4 2 7 7 2 8 8 7 6 3 9 6 2 7 4 4 6 6 8 7 8 10 11 11 10 10 11 12 13 16
1 2 2 2 2 2 3 4 5 7 7 7 7 7 7 6 5 4 3 3 4 8 9 6 8 5 4 5 3 6 12 13 19 20 17 11 6 8 9 7 7 7 9 10 6 7 8 7 11 9 3 4 2 0 3 4 3 0 5 3 5 8 4 7 6 8 6 3 11 6 2 6 5 4 5 5 8 8 9 10 10 9 9 10 11 12 14 19
1 2 2 2 3 3 4 5 6 7 7 7 7 7 7 6 5 3 2 3 4 8 9 6 7 5 5 2 1 10 16 16 23 24 19 15 7 6 7 6 6 8 8 10 9 9 9 8 13 9 3 5 1 2 4 5 5 1 4 3 4 5 6 8 6 9 9 3 10 8 2 5 8 7 4 6 7 8 9 9 9 9 10 10 11 13 15 19
1 2 3 3 3 4 5 6 7 7 7 6 7 9 10 8 4 3 2 3 4 8 8 7 6 4 4 2 2 12 19 19 27 28 19 16 13 7 5 6 7 9 10 10 10 10 10 9 11 6 3 4 4 5 4 4 5 4 4 4 4 3 7 10 4 7 8 5 8 8 1 4 7 7 4 7 7 8 9 8 9 10 10 11 11 14 15 16
2 3 4 4 4 5 5 6 7 6 5 5 8 10 14 15 6 2 2 3 3 7 8 7 6 4 5 2 7 12 15 16 23 25 16 11 14 9 4 6 8 10 10 11 11 8 12 12 7 3 3 6 6 4 3 5 5 4 5 3 5 5 7 9 3 4 5 4 7 6 1 4 5 7 8 8 7 8 8 8 10 11 12 12 11 13 13 13
4 4 4 4 4 5 5 6 7 5 3 3 5 8 12 18 13 2 3 1 2 5 7 9 7 3 5 5 7 8 10 12 17 23 18 8 11 12 5 5 3 3 5 11 15 10 11 9 3 2 5 6 4 3 5 6 5 4 5 2 3 3 4 6 5 4 7 5 5 4 1 5 7 9 9 7 7 8 9 9 11 12 13 12 11 12 13 14
4 4 4 3 3 4 5 6 6 4 2 1 1 4 6 13 19 17 8 2 1 4 5 10 9 4 3 7 5 9 14 12 14 23 23 11 7 11 10 6 3 3 2 8 13 10 6 5 3 2 4 6 6 7 6 1 2 2 3 2 3 4 3 5 6 5 9 7 5 5 3 8 11 10 8 8 10 11 10 9 11 13 13 12 11 11 12 14
4 3 3 2 3 4 5 7 7 4 3 4 4 4 3 4 13 23 22 13 6 4 2 5 6 4 2 6 7 14 13 8 13 22 27 18 8 7 11 11 6 5 5 4 7 8 4 4 5 4 5 7 5 3 3 4 5 4 3 2 2 4 4 7 7 3 7 7 5 4 4 9 12 12 11 10 11 14 13 12 12 12 11 11 11 11 12 14
2 2 2 2 3 4 6 7 7 6 5 4 4 4 2 2 5 9 14 14 6 4 4 1 1 2 2 4 10 17 9 3 11 23 32 23 8 6 9 10 8 8 6 1 4 5 3 7 6 2 4 6 4 3 3 2 3 4 3 2 4 4 6 8 5 3 4 4 4 3 5 8 8 10 10 9 14 17 13 13 13 11 11 10 11 12 12 11
2 1 2 2 3 4 6 7 7 8 9 5 1 3 1 2 4 1 2 6 2 2 5 2 2 0 3 3 10 14 5 2 9 22 34 23 5 5 8 7 8 8 5 1 2 4 5 8 4 4 6 5 3 2 3 3 3 3 3 2 4 2 6 9 4 3 5 4 3 3 8 9 7 9 8 11 17 15 11 12 11 11 11 9 10 12 10 8
1 1 2 2 3 4 6 8 9 10 11 10 8 8 4 3 5 5 3 4 2 3 3 0 1 3 3 1 10 11 2 6 11 18 32 24 9 6 4 6 9 5 6 3 2 6 7 6 5 5 2 2 2 2 3 4 4 2 1 1 4 2 5 9 4 2 3 2 4 3 7 8 5 8 10 13 13 9 9 10 9 9 10 9 10 10 10 10
1 1 2 2 4 4 5 7 9 10 12 13 10 8 6 5 5 4 3 5 1 3 3 3 4 5 5 3 12 12 6 8 6 13 27 19 7 5 3 6 7 4 7 6 5 5 5 2 3 1 2 4 2 4 5 4 3 1 1 2 5 4 3 4 3 4 5 1 3 4 4 4 1 6 10 11 8 8 8 8 9 8 8 8 8 7 9 11
1 1 2 3 4 4 5 6 6 8 11 11 11 8 6 6 4 3 3 3 1 1 1 1 3 3 4 4 13 9 5 5 1 9 22 13 4 3 4 4 4 5 4 4 8 7 2 2 1 4 4 4 2 5 6 5 4 2 2 1 5 5 2 5 6 8 7 1 1 4 3 2 1 5 7 5 5 8 8 8 10 9 8 7 8 8 10 10
2 1 3 4 3 3 4 4 5 6 6 6 8 6 6 6 3 2 3 3 3 3 1 1 2 5 4 7 15 5 3 4 2 6 14 10 4 2 3 1 4 5 3 1 7 5 1 1 1 3 6 6 5 4 4 3 3 4 3 4 5 5 6 7 7 7 5 3 2 3 4 4 0 6 5 1 4 8 7 9 10 8 9 9 10 10 10 10
3 3 3 3 2 3 2 2 4 6 4 3 4 3 3 3 3 2 3 5 4 3 5 4 2 9 8 9 13 3 4 5 2 5 12 11 4 3 4 3 2 3 2 2 4 2 1 2 2 3 3 5 6 3 1 2 3 4 2 3 3 3 6 6 4 2 3 4 3 3 2 5 2 4 3 2 6 8 7 9 9 7 8 8 8 8 9 10
3 3 4 3 2 3 2 0 4 5 2 2 4 2 1 1 1 1 2 6 4 2 5 5 3 9 9 9 12 3 3 7 5 7 12 12 7 2 5 4 2 3 1 2 3 1 1 4 6 5 4 5 6 4 3 3 4 3 1 1 3 5 5 3 1 1 1 4 3 3 2 3 4 1 4 3 7 9 9 9 8 7 8 8 8 7 9 9
3 4 4 3 2 3 4 2 3 4 2 4 6 4 2 2 1 0 5 5 3 2 2 3 4 8 7 9 12 7 2 6 3 6 13 14 9 3 4 2 3 1 1 4 3 0 2 4 5 4 5 5 4 3 3 4 2 5 3 3 4 4 2 2 2 1 1 2 4 4 1 2 6 3 3 1 6 8 8 7 8 8 7 8 9 8 9 9
3 4 4 3 2 3 4 4 4 3 3 3 4 2 1 1 1 3 6 4 2 2 0 2 4 7 9 8 9 6 3 4 4 6 13 12 11 7 4 2 6 4 2 5 4 2 1 1 1 1 4 4 4 4 3 5 1 7 5 4 3 2 3 3 2 0 2 2 4 6 0 1 7 4 1 2 5 5 5 4 5 6 7 8 9 10 10 10
4 5 4 3 2 1 2 4 5 3 2 2 3 3 1 2 4 6 4 1 1 2 1 3 4 4 9 8 7 7 6 4 2 6 8 5 9 9 4 1 5 5 4 6 4 1 2 1 1 2 2 2 4 4 2 5 4 6 6 4 3 4 3 3 1 2 4 4 6 6 1 1 5 4 1 2 1 0 3 4 4 5 8 8 8 9 10 11
5 5 4 2 2 0 1 2 4 2 2 2 1 2 2 2 5 7 3 1 1 3 3 5 3 4 8 6 4 6 5 5 6 7 6 4 8 10 6 4 4 5 5 6 6 6 3 2 1 1 1 1 3 4 1 2 4 4 5 5 5 4 3 4 4 4 3 6 7 4 1 1 4 3 1 1 1 2 2 3 5 5 7 9 8 8 9 10
7 5 3 2 1 1 1 1 0 1 1 1 2 3 3 3 5 3 1 4 2 3 3 2 4 5 6 4 4 6 4 5 5 6 4 4 6 7 6 5 2 4 6 4 5 6 2 1 3 3 1 1 3 4 4 4 5 5 5 6 6 4 5 5 5 3 2 8 6 1 0 1 4 3 1 3 2 1 2 3 5 4 4 8 7 7 8 9
7 4 3 5 3 2 2 2 1 1 1 1 2 5 7 6 3 1 3 3 2 3 1 1 4 4 3 4 5 5 2 3 5 5 2 2 5 4 3 4 2 1 2 2 3 5 3 5 6 5 2 1 3 4 4 5 5 5 3 4 5 3 5 5 5 3 5 9 5 2 1 3 4 2 3 4 3 3 3 4 5 5 4 7 7 7 9 10
10 7 7 9 9 6 3 1 2 1 1 3 4 6 8 5 1 0 3 3 1 3 1 0 4 4 3 4 3 4 2 3 4 5 4 3 5 5 4 6 6 2 1 2 2 2 3 4 5 4 2 3 4 3 1 1 2 3 1 4 4 2 1 3 4 4 7 10 8 4 1 5 6 2 5 4 3 3 3 4 5 5 5 6 8 9 10 11
13 12 14 16 16 13 6 1 1 1 0 5 7 7 7 2 3 0 1 4 2 3 3 1 3 4 4 3 3 2 1 2 3 4 5 5 3 3 4 5 7 4 2 3 2 1 2 3 5 3 2 1 4 0 2 3 1 3 2 4 3 0 3 2 4 4 4 6 7 5 2 3 2 2 2 2 3 4 4 5 6 7 7 9 12 12 13 14
13 15 18 21 20 16 9 3 1 1 3 7 9 6 3 2 2 2 2 2 0 1 3 4 5 5 4 5 4 5 2 2 2 4 4 3 1 2 2 3 3 4 3 3 0 2 2 3 6 5 3 1 3 1 0 3 2 2 3 3 4 3 6 1 4 2 1 4 4 3 5 4 1 1 3 4 6 5 5 7 10 12 14 16 15 15 16 16
10 12 16 23 22 15 10 6 4 5 6 8 8 4 2 2 2 3 2 1 0 1 3 3 3 3 3 3 4 7 5 3 3 4 3 2 1 2 3 3 1 1 0 2 1 1 1 4 6 4 5 3 3 2 2 3 1 2 2 4 3 1 4 3 2 3 4 5 4 5 10 9 4 2 2 4 8 9 10 13 15 16 17 16 15 16 17 17
4 6 10 22 22 12 7 6 6 8 8 8 7 3 2 1 1 2 2 1 0 2 5 3 1 1 0 1 3 7 6 4 5 4 2 2 2 1 2 3 0 1 2 0 1 0 3 2 6 1 3 7 1 4 4 4 2 3 1 2 2 2 3 2 1 3 4 5 5 7 12 9 3 3 2 6 10 12 13 14 15 16 15 14 16 17 19 19
2 3 5 18 19 11 7 3 5 9 9 7 4 2 1 1 1 2 2 2 1 3 4 1 1 2 1 1 1 4 4 3 3 3 2 2 2 2 1 1 1 2 3 1 1 1 2 2 4 4 4 6 4 4 4 5 5 4 3 3 3 1 3 2 2 1 2 5 6 8 12 7 1 3 2 6 10 12 16 17 14 14 15 15 16 16 18 19
2 3 3 16 14 7 9 12 10 9 8 4 3 2 1 1 1 0 2 1 1 2 2 1 1 3 1 0 0 2 2 2 1 2 2 2 1 1 1 1 2 4 4 3 3 1 1 3 3 6 5 5 3 2 1 1 3 4 4 4 4 1 1 2 1 1 1 3 5 7 11 7 1 2 2 5 10 15 18 16 13 14 16 17 18 19 18 18
3 4 4 17 12 1 6 16 12 5 5 4 2 2 1 0 1 2 1 1 1 0 2 4 3 2 0 1 2 1 2 2 1 1 1 2 3 1 1 2 2 4 4 3 3 1 1 2 2 5 5 4 3 2 1 3 4 3 3 2 0 1 2 3 4 2 2 2 3 5 9 8 1 2 2 4 12 16 15 12 13 15 18 19 20 21 20 18
6 4 5 14 9 6 10 10 4 3 5 3 2 2 2 2 2 2 2 2 1 0 2 3 3 2 2 1 1 1 0 1 1 2 0 1 1 1 0 1 2 3 1 1 2 1 0 2 0 4 4 4 4 3 2 6 11 8 4 2 2 2 4 2 4 4 1 2 4 4 8 8 0 4 2 8 14 14 11 12 15 16 19 21 20 21 21 19
4 3 6 13 5 6 12 7 3 5 4 1 1 1 2 2 2 1 2 2 1 1 3 2 1 1 1 1 0 1 1 0 1 0 1 2 2 1 0 3 3 3 1 1 2 1 1 2 2 5 5 2 3 3 2 5 9 7 4 3 3 2 2 4 3 2 3 4 2 2 9 9 1 1 7 13 15 12 11 15 18 18 18 20 20 20 19 18
3 3 5 16 8 3 6 5 2 3 2 0 3 3 3 1 2 2 2 2 2 1 2 1 0 1 1 1 1 1 1 0 1 1 1 2 2 1 1 3 3 1 0 1 1 2 2 1 2 5 6 6 5 4 3 2 3 4 2 3 3 3 3 1 1 3 2 4 1 3 9 11 7 9 15 17 14 12 15 18 19 18 18 19 20 19 17 18
4 2 3 15 19 11 4 3 6 5 3 3 5 4 4 2 2 2 1 1 1 2 2 1 1 1 1 1 1 1 1 1 1 1 1 1 2 0 0 2 2 0 0 1 2 2 1 1 3 4 3 6 6 6 6 5 3 2 2 3 3 3 4 2 1 1 2 6 7 5 9 15 17 19 21 17 13 14 19 21 20 18 19 19 18 17 17 18
3 4 3 8 14 11 4 1 4 6 4 4 4 3 2 2 1 1 2 1 0 1 2 1 1 1 2 3 2 2 2 1 1 1 1 2 3 2 1 1 1 1 1 1 1 2 3 1 2 5 4 5 6 9 7 4 4 4 1 3 2 1 3 3 1 1 5 10 10 7 10 19 23 23 21 16 14 16 19 21 20 19 19 19 18 18 20 18
3 3 2 1 4 5 5 4 5 4 3 4 3 1 1 2 2 1 1 1 1 1 2 2 2 2 2 3 3 2 3 2 1 1 1 3 3 3 2 1 0 3 2 1 1 3 4 2 1 3 5 7 8 11 9 5 5 4 1 3 1 1 1 4 1 6 8 8 9 11 17 21 22 23 20 16 16 17 19 21 21 20 20 19 18 20 21 20
3 3 1 1 2 2 3 3 3 5 5 4 3 2 2 3 3 1 1 2 1 0 1 1 4 3 2 1 2 1 4 4 3 1 0 2 3 4 3 1 1 3 1 1 2 3 4 1 1 2 5 9 9 11 8 4 3 2 5 3 1 1 1 3 3 8 9 7 11 19 22 21 20 19 18 17 19 19 20 22 21 20 21 21 21 22 22 21
3 4 0 2 3 3 1 2 3 6 6 5 3 2 2 3 3 0 2 2 3 3 2 2 4 5 4 4 3 2 1 1 2 3 1 1 2 2 2 0 2 2 2 3 4 1 3 1 1 3 4 9 9 7 5 5 4 1 5 3 2 2 3 5 6 9 10 12 15 19 22 20 15 13 16 18 19 17 17 20 21 22 23 23 23 23 22 19
3 4 2 4 5 2 2 3 3 4 5 4 3 2 1 3 2 1 1 1 1 3 3 2 4 5 4 4 3 2 4 6 4 5 4 2 2 1 1 1 1 4 4 3 2 2 3 4 0 3 3 7 5 3 7 7 4 2 3 1 2 3 3 6 8 8 10 15 18 18 19 16 9 11 18 20 18 16 17 21 22 21 23 25 23 22 21 20
5 5 6 7 4 4 3 3 2 4 4 4 2 1 0 2 2 2 1 2 3 2 1 2 4 3 1 2 3 4 6 7 7 7 6 3 1 2 1 1 1 3 5 3 3 4 5 4 2 4 5 6 2 6 13 10 3 4 1 3 5 6 7 8 7 7 11 17 20 19 15 11 9 13 19 20 19 20 20 20 20 19 23 26 23 21 22 24
7 5 4 7 5 3 3 2 3 4 2 2 1 2 2 3 5 3 2 1 2 3 4 5 5 3 1 2 3 3 5 5 4 2 1 2 2 3 2 3 5 4 2 2 2 2 2 2 3 4 4 8 8 11 14 9 5 4 2 2 5 11 13 13 10 11 13 13 13 14 11 11 15 17 20 23 24 23 20 17 18 19 22 23 23 24 28 29
Wind_Direction
22 38 41 45 59 68 60 51 49 40 37 37 37 37 31 27 23 25 35 34 32 41 51 57 47 35 22 12 17 20 35 52 42 42 44 18 355 355 353 352 354 354 357 354 0 17 22 20 7 18 85 78 13 340 12 19 51 50 83 91 288 215 210 188 190 203 203 285 285 314 39 341 302 316 302 320 340 292 294 275 253 262 258 249 263 281 294 298
33 39 46 61 72 66 59 53 46 37 37 40 38 35 26 22 18 22 33 30 33 40 43 40 26 18 9 2 354 7 41 66 42 40 28 6 0 2 4 6 1 355 1 3 9 27 42 350 335 20 58 56 350 355 35 11 48 81 118 89 241 205 215 196 190 206 209 290 295 309 6 196 267 298 336 315 294 315 314 291 276 272 274 270 274 279 282 276
36 48 65 76 73 65 63 53 41 36 38 38 33 24 16 12 9 16 28 27 31 33 30 22 16 10 359 353 343 356 51 75 39 21 7 4 1 2 7 4 358 356 359 4 10 26 67 264 316 53 56 60 352 12 48 13 14 143 117 82 241 215 244 234 208 229 244 294 308 314 2 215 255 268 331 305 296 312 302 287 315 303 300 303 293 291 289 270
57 70 82 77 72 70 64 47 36 35 34 30 22 11 4 359 357 9 23 28 30 26 20 14 10 360 353 354 351 343 102 71 25 336 356 2 358 357 359 359 356 357 359 7 16 29 75 115 69 65 71 55 338 22 57 339 353 153 133 173 218 186 289 283 221 251 271 261 284 311 338 295 271 225 276 293 316 322 305 254 246 290 301 305 304 305 298 268
77 83 83 76 78 74 54 36 31 30 25 18 9 1 356 353 352 7 25 31 28 22 17 11 3 355 359 18 6 327 136 63 331 330 355 356 357 353 353 359 358 6 17 21 25 36 60 65 59 48 57 56 346 25 45 314 51 127 203 186 185 135 283 304 311 286 303 244 271 312 316 299 307 203 230 192 280 287 299 296 270 282 290 293 298 303 300 276
87 84 83 83 80 63 37 29 25 20 13 7 2 358 359 358 358 17 32 32 24 19 14 7 1 359 15 52 39 54 109 77 301 337 351 348 353 350 351 359 5 20 23 38 40 54 54 37 54 53 49 62 14 52 72 317 29 81 313 352 173 154 249 307 333 332 352 341 290 288 288 315 350 313 226 177 238 251 288 306 295 293 291 292 296 300 301 290
90 86 89 88 69 44 26 23 16 10 3 0 1 0 6 10 15 31 37 30 19 15 14 10 6 8 29 83 56 58 86 88 311 341 342 343 347 343 354 6 18 29 34 45 33 65 74 39 62 112 78 61 356 87 43 325 32 80 296 339 34 198 247 309 322 317 344 277 264 268 304 317 309 308 353 267 263 279 302 302 302 301 300 305 310 306 303 302
95 93 93 79 49 27 18 17 7 3 360 360 2 2 9 20 27 40 41 26 13 14 16 13 8 12 33 111 73 52 58 336 331 342 338 339 341 341 1 17 32 43 50 44 25 116 95 47 88 152 70 56 163 89 14 346 37 77 240 302 60 237 273 313 308 310 337 272 258 298 310 290 264 269 355 286 295 328 317 318 322 319 333 346 353 344 334 329
99 98 89 56 25 15 18 13 3 358 357 359 2 5 14 21 27 36 35 20 13 20 16 16 16 19 35 96 93 67 359 333 340 341 337 336 338 347 17 29 37 43 53 45 36 78 89 76 183 167 124 116 121 65 358 32 28 197 228 283 331 297 307 329 324 343 346 296 349 358 329 308 278 290 296 275 327 340 328 344 349 0 20 18 16 13 11 11
104 101 71 21 9 23 26 8 357 356 359 360 1 12 24 19 21 25 28 23 18 20 13 16 20 31 46 55 76 65 339 343 354 345 338 335 341 16 46 41 43 43 52 43 38 44 51 138 179 130 120 118 98 59 319 51 84 207 259 207 160 302 301 343 355 1 350 242 28 4 330 318 308 18 356 310 345 347 348 3 6 19 25 19 21 24 26 26
107 73 26 11 31 35 13 359 352 358 2 3 10 24 25 16 16 14 18 18 13 15 8 12 19 46 59 55 75 59 347 355 359 351 345 341 11 70 50 50 51 44 45 41 38 35 47 130 153 123 97 112 107 4 334 98 121 251 303 190 339 328 290 359 8 359 356 38 7 3 326 326 348 28 345 324 339 347 7 9 10 21 20 16 21 27 31 29
87 32 23 34 46 19 360 357 354 4 6 14 28 24 15 11 6 356 360 3 10 14 3 7 16 40 65 53 75 41 2 6 358 358 5 11 62 57 40 52 54 51 53 51 40 41 78 126 109 89 22 139 125 359 119 99 108 307 34 69 335 357 45 10 8 339 357 12 340 357 34 344 352 345 317 327 340 351 23 19 13 17 16 18 24 32 36 30
58 34 47 54 27 3 1 357 359 6 11 23 22 10 4 354 343 332 335 1 10 12 9 15 13 16 62 51 81 23 13 8 1 10 25 31 62 49 42 59 60 63 67 69 68 67 89 108 93 96 101 99 116 357 108 48 51 304 27 56 348 7 5 9 12 335 3 13 339 7 62 326 312 302 313 347 359 9 24 19 14 16 18 23 28 36 38 33
56 55 55 37 12 4 360 0 4 8 15 22 16 14 9 343 327 314 305 351 355 2 12 26 17 28 69 80 160 12 6 6 10 16 22 26 42 47 47 57 56 73 81 76 80 81 91 93 86 97 82 72 84 20 44 12 24 2 359 30 33 16 325 348 16 3 16 348 350 27 139 298 307 307 345 12 12 33 31 15 15 17 19 24 29 36 38 35
65 56 35 21 9 7 4 3 2 8 23 35 40 42 27 4 320 281 285 297 335 3 11 21 20 44 79 73 8 2 360 9 14 12 12 20 30 28 36 54 73 91 89 76 77 76 74 75 70 63 340 14 48 43 22 354 15 22 18 354 360 17 321 330 2 35 23 305 352 38 153 288 295 291 347 18 15 40 38 18 19 20 21 27 33 39 39 35
56 38 26 19 13 10 5 5 8 22 47 72 65 51 36 26 8 241 267 283 322 1 14 16 5 54 92 358 337 355 1 5 5 7 12 24 27 18 32 78 98 107 94 65 59 52 46 56 66 57 13 13 36 60 40 18 4 11 42 349 316 360 337 327 339 51 32 313 345 30 109 282 283 296 336 14 22 37 47 25 21 24 24 29 34 40 40 34
48 34 26 20 15 11 6 13 23 39 68 101 70 49 43 34 31 59 243 291 7 358 30 25 357 70 81 357 345 347 343 346 353 6 15 19 21 22 53 111 99 106 98 46 35 24 26 40 56 44 42 29 19 59 57 23 344 343 29 15 292 319 318 319 320 345 26 30 346 6 181 253 274 300 325 7 22 32 47 28 25 33 31 34 36 38 39 34
47 36 31 25 15 18 19 19 22 30 24 260 352 16 35 38 46 59 63 95 54 360 36 19 14 89 26 353 352 318 315 329 352 7 12 9 5 22 45 67 8 334 1 24 26 21 12 21 49 57 33 23 18 44 66 34 267 293 326 1 321 304 275 294 299 329 10 14 342 349 327 293 300 313 343 13 24 36 46 39 40 40 37 39 37 37 37 33
53 44 40 32 28 37 30 18 13 3 318 291 297 320 333 23 50 54 52 61 65 38 48 345 16 111 297 320 319 320 315 328 3 8 9 8 350 8 33 38 34 32 34 19 8 12 20 25 40 46 8 357 359 55 120 195 183 196 240 183 252 294 288 276 274 311 357 342 324 346 324 301 312 338 5 14 34 47 45 47 49 42 41 40 37 36 32 31
67 55 56 43 50 54 33 20 17 15 350 308 285 317 358 27 33 34 33 46 70 80 101 225 29 110 305 306 324 341 342 346 20 12 6 2 343 356 18 19 32 47 47 26 335 353 57 53 41 19 308 299 285 238 193 187 157 160 161 197 241 250 286 289 276 291 353 346 295 316 311 298 329 5 14 29 48 47 38 43 44 39 40 34 33 31 26 27
76 58 62 55 75 66 36 28 30 34 30 22 43 51 103 135 69 94 345 36 52 53 77 169 195 347 294 286 336 351 359 338 14 11 6 3 357 14 5 9 39 37 10 275 303 339 55 59 22 277 261 260 281 242 162 114 111 131 140 271 292 233 269 293 292 293 8 23 280 332 334 319 12 30 22 48 56 47 34 42 39 35 38 33 31 26 19 18
63 58 52 70 102 70 42 47 47 47 47 53 78 86 118 147 109 145 150 80 30 1 53 46 64 8 291 275 352 352 35 8 359 1 3 6 23 36 8 32 58 39 346 13 6 360 46 50 316 286 244 144 63 61 99 107 114 105 97 352 323 301 281 296 293 285 8 18 280 347 345 323 27 59 48 52 64 62 46 46 41 33 35 29 26 20 11 9
41 52 59 113 123 68 51 67 56 50 53 59 74 94 113 100 112 142 95 90 70 343 18 32 68 18 350 35 1 360 50 32 355 345 357 5 27 55 73 50 62 47 4 31 61 56 59 6 319 7 117 130 69 23 48 63 80 92 22 24 319 318 340 304 301 321 327 293 264 312 318 304 46 88 66 54 64 72 58 53 49 39 38 28 21 19 12 9
42 63 107 136 130 68 59 73 54 44 53 67 76 91 111 87 97 124 76 88 57 348 36 81 127 46 21 6 355 5 75 49 38 337 354 12 32 39 78 79 76 50 6 43 76 89 108 280 99 72 44 95 91 9 39 44 8 295 224 309 300 304 283 247 281 316 326 353 289 324 328 286 178 90 71 53 52 58 46 42 41 34 30 24 20 20 15 13
48 78 126 138 128 68 60 67 45 33 43 74 80 84 93 68 55 113 98 71 11 325 353 76 104 30 12 344 351 4 121 43 87 334 353 18 17 23 67 91 84 40 304 124 73 76 36 294 116 49 18 49 74 36 33 51 358 313 249 229 255 285 275 265 290 319 356 355 308 24 6 295 160 89 83 43 42 49 39 35 33 23 19 17 16 14 9 7
58 98 123 134 122 50 41 58 21 9 13 58 67 69 75 54 48 98 113 65 21 323 353 7 19 5 353 343 343 354 92 5 318 2 13 18 4 129 75 350 47 44 229 163 73 87 25 18 53 60 46 35 50 54 313 135 53 345 291 197 208 277 277 277 297 340 16 310 281 82 81 268 291 89 127 117 58 44 33 33 27 16 16 16 12 6 2 360
74 115 125 130 117 38 19 72 9 9 26 4 341 328 296 313 29 66 80 46 10 310 353 343 342 1 354 343 344 55 81 320 310 26 20 10 348 114 74 11 29 27 221 109 51 75 350 359 20 31 48 34 31 14 272 153 82 334 305 68 317 300 278 252 181 149 275 295 317 45 111 251 287 209 179 139 63 38 24 23 16 10 9 10 6 360 359 356
101 127 134 122 102 47 44 59 23 21 13 323 320 313 269 255 260 118 86 66 345 322 17 322 342 0 348 349 10 67 110 316 18 2 348 8 6 25 72 81 127 86 347 100 93 8 14 4 3 2 18 21 5 324 249 152 102 281 289 11 322 294 271 167 136 208 282 345 323 315 57 291 279 237 180 127 62 35 17 11 1 2 358 359 0 353 353 351
117 128 126 111 108 64 50 49 34 27 2 340 3 22 194 162 93 63 78 96 325 350 111 333 356 348 344 1 18 39 10 5 65 322 334 13 14 24 80 143 138 140 3 82 130 229 23 9 230 83 36 356 298 282 201 151 266 289 310 14 51 61 54 84 97 60 26 18 285 279 30 286 281 292 357 27 58 26 354 351 346 353 349 349 354 347 346 347
124 128 123 118 134 98 36 37 38 44 38 45 58 57 96 82 64 60 53 102 344 333 301 20 10 336 359 15 1 2 19 10 339 327 346 13 357 17 88 167 105 108 4 39 73 299 310 284 193 105 42 281 283 298 190 182 264 316 346 354 28 48 42 49 51 62 39 331 286 274 203 156 286 302 2 4 54 207 308 333 329 348 354 348 346 343 343 343
132 131 130 130 136 104 298 26 39 62 77 63 38 17 35 30 60 85 76 266 324 340 7 20 357 6 25 34 356 350 13 345 335 5 9 1 3 17 39 11 35 54 10 15 19 349 345 15 346 292 295 298 335 337 325 240 284 356 15 354 360 359 6 17 355 29 27 296 281 264 218 153 259 276 132 186 272 220 239 318 318 330 353 347 336 336 338 337
126 119 111 89 99 38 33 143 101 85 52 349 2 39 75 39 31 86 305 316 335 348 19 347 322 7 11 21 10 341 342 341 355 40 23 13 34 31 37 29 347 13 11 356 354 352 349 325 313 303 300 16 6 352 347 347 357 17 24 22 23 355 354 359 332 354 276 271 270 184 26 236 239 261 173 176 216 259 239 275 294 286 324 339 328 323 329 330
105 98 81 59 57 35 59 152 191 121 352 316 30 50 77 77 36 246 291 332 1 338 10 283 308 337 347 13 11 335 345 354 352 31 37 64 60 34 35 45 45 30 358 340 5 4 336 315 336 354 334 17 57 42 349 333 354 5 19 52 52 24 353 329 309 326 292 284 288 117 144 274 285 282 179 181 191 204 243 269 275 264 284 323 323 314 317 319
94 87 73 56 47 33 36 183 198 168 24 43 64 52 63 79 187 249 316 292 292 336 2 262 315 335 32 46 354 321 28 10 348 19 10 24 46 13 352 11 19 40 43 26 34 37 13 328 335 1 331 360 47 78 194 243 318 316 183 111 76 78 349 284 275 295 301 299 305 330 300 278 313 315 179 188 208 221 287 286 280 280 277 302 315 313 315 317
90 76 60 47 38 27 23 156 185 219 110 63 64 61 75 113 247 133 298 273 289 330 310 313 9 23 13 349 333 342 73 329 356 41 19 22 59 14 347 344 356 17 59 40 337 359 58 268 275 297 272 26 35 296 166 108 354 282 150 84 21 182 169 216 235 235 270 294 296 306 269 233 310 308 222 285 287 270 284 281 287 300 311 327 331 332 334 334
83 66 49 35 27 22 28 81 97 99 119 83 65 57 104 187 238 162 199 284 341 314 320 342 31 44 348 319 339 354 348 301 7 51 31 34 101 20 353 286 324 13 68 97 334 337 37 290 298 332 323 111 110 245 301 56 340 317 52 6 296 185 141 172 279 280 339 295 280 304 298 292 356 296 281 304 293 279 288 307 322 331 340 344 342 341 339 336
77 67 46 26 17 17 37 68 93 103 96 78 76 89 194 206 185 185 207 7 165 127 64 33 17 29 342 316 324 333 342 347 10 39 34 29 59 16 346 287 285 24 21 138 177 244 96 300 305 355 341 303 153 127 26 19 10 48 19 306 290 94 100 107 274 328 357 286 274 321 306 307 340 322 278 302 317 332 334 334 339 340 344 344 336 333 329 326
66 83 50 19 10 10 34 63 83 89 83 65 73 114 192 207 188 201 185 103 184 52 73 87 17 38 132 320 319 321 345 2 1 28 48 18 37 51 349 309 276 50 329 26 59 75 113 305 297 310 314 301 29 79 9 330 5 72 55 309 30 12 323 18 346 317 329 291 284 306 296 297 317 290 305 336 336 342 336 335 338 337 339 335 328 326 324 324
30 96 36 6 9 24 37 85 89 64 70 71 77 133 178 225 234 201 173 121 95 72 66 72 11 56 103 123 320 313 352 17 355 28 67 32 23 63 52 305 299 355 339 48 111 263 120 106 289 281 299 318 360 39 345 319 338 16 39 13 31 158 239 307 331 279 303 287 290 302 298 300 253 225 286 339 337 341 337 336 338 334 333 329 324 324 324 324
35 98 10 354 4 36 55 74 72 47 65 102 164 156 107 246 268 216 171 111 77 84 67 153 103 45 359 6 62 304 4 36 359 20 42 32 25 28 51 28 324 320 324 25 85 312 8 104 262 293 335 353 354 16 11 316 328 360 41 14 347 3 273 297 274 134 103 276 285 300 296 294 214 193 269 329 340 346 342 338 336 331 328 326 324 324 323 320
55 92 341 351 357 279 61 62 55 41 85 94 133 124 63 144 72 12 359 73 41 335 124 140 121 85 140 33 34 273 347 12 15 43 11 22 47 17 34 93 322 308 328 17 58 28 344 123 235 302 347 344 285 291 294 145 121 80 75 84 78 65 31 340 308 327 101 192 263 286 288 293 305 166 232 338 344 345 345 339 334 329 326 325 323 320 317 314
61 87 322 350 22 90 72 58 20 39 95 75 72 107 44 69 79 11 9 52 35 349 73 101 99 98 137 75 345 214 21 2 359 45 123 260 42 302 323 67 298 286 319 18 336 295 133 109 223 282 282 286 300 337 41 112 104 91 79 102 120 107 93 83 300 312 4 277 272 271 281 291 241 172 269 348 345 342 347 339 331 328 324 321 317 313 312 311
76 117 349 353 1 98 70 61 335 26 66 41 51 79 21 62 82 7 20 27 359 9 41 51 58 58 106 182 199 163 111 160 232 21 209 243 250 223 306 351 312 271 215 21 321 308 42 70 11 299 283 303 15 36 71 106 93 76 47 51 86 93 115 164 204 311 324 285 284 294 284 288 261 196 319 339 341 343 345 336 331 327 319 315 312 310 312 311
102 147 14 12 16 139 88 93 132 62 72 95 54 27 355 47 73 25 17 8 6 88 72 51 334 38 92 174 119 160 257 102 188 254 190 215 226 137 56 326 316 276 121 39 327 325 344 49 37 356 340 343 5 8 327 323 47 67 41 19 58 54 27 82 113 25 318 259 288 313 285 288 308 323 324 331 341 345 338 332 328 321 314 313 313 312 312 313
69 87 334 17 38 66 101 145 138 123 137 104 69 25 3 40 48 28 92 59 16 154 109 55 254 87 109 117 61 321 299 59 229 300 46 232 259 349 83 300 308 200 117 316 295 324 19 115 91 73 360 326 323 311 302 314 345 60 89 31 39 60 50 60 79 20 298 293 305 287 274 293 309 318 322 329 345 344 332 327 321 315 311 310 311 313 313 313
74 55 330 1 29 52 78 98 92 107 140 118 76 19 34 68 334 293 128 99 21 120 71 21 250 92 61 64 43 319 310 12 41 71 85 251 273 280 225 237 316 263 281 301 316 74 95 100 106 135 196 260 257 263 288 335 321 294 35 40 358 359 70 78 111 269 295 300 295 269 281 301 309 315 320 331 344 339 328 322 318 314 313 310 310 311 310 310
95 82 58 5 9 34 45 24 39 80 137 129 101 38 29 19 314 307 102 126 187 111 69 34 42 52 21 42 52 293 291 338 12 84 137 248 272 291 263 173 191 296 298 261 207 92 82 32 74 164 228 250 251 269 294 324 292 275 86 65 333 266 73 74 45 294 300 296 291 301 309 308 309 314 322 332 338 334 325 320 317 314 311 310 310 309 309 310
76 130 183 131 80 60 46 30 54 71 65 83 109 104 37 18 19 26 320 332 7 72 120 45 17 13 259 258 79 336 325 352 342 316 139 250 292 338 346 162 244 303 321 2 349 97 104 72 151 179 257 269 268 274 283 283 264 165 121 126 149 191 335 9 302 288 297 287 290 305 310 306 306 313 324 331 332 330 323 316 314 312 310 311 312 312 312 312
85 113 318 21 89 144 155 22 74 75 57 62 81 67 74 70 57 351 262 358 360 332 75 83 323 309 257 234 138 119 307 6 311 292 228 196 297 360 32 213 278 319 49 39 357 102 129 298 210 169 277 282 272 269 276 288 288 127 126 155 183 204 273 317 305 291 294 286 287 300 304 302 306 317 325 326 324 322 316 311 311 311 311 312 313 312 312 313
142 141 137 67 72 87 42 18 57 72 44 45 68 52 91 106 80 253 230 98 16 316 35 79 273 269 237 217 150 147 212 187 209 245 195 139 307 252 136 164 269 340 22 50 343 340 15 333 267 109 325 289 267 297 316 311 285 186 137 134 297 276 295 325 318 307 307 300 300 308 306 303 317 329 321 318 316 315 313 311 312 312 312 313 313 313 315 322
102 125 134 111 66 7 16 18 53 82 38 19 80 168 174 157 180 186 225 216 189 204 191 188 229 228 200 223 204 223 230 200 208 230 197 162 234 202 145 117 143 348 3 34 358 357 20 351 350 56 359 297 295 347 326 328 70 114 46 338 337 340 337 330 323 319 318 313 313 316 312 309 325 327 318 314 315 317 316 314 315 316 315 314 315 318 323 326
96 93 109 104 75 357 4 6 22 79 73 324 194 194 213 211 211 186 150 230 228 215 209 196 192 189 213 285 249 221 218 200 208 258 173 118 92 88 73 75 79 47 22 86 36 358 39 3 348 36 353 308 333 340 317 320 52 52 329 303 350 348 336 327 327 322 317 316 314 313 312 318 324 325 322 320 319 319 318 317 317 316 313 312 317 324 326 324